Flag for Germany Weather past 2 weeks in Wesseling, North Rhine-Westphalia, Germany

Now
40 °F

Overcast.


Feels Like: 40 °F
Forecast: 35 / 45 °F
Wind: 2 mph from Southwest

Location: Koeln / Bonn

Current Time: Mar 3, 2015 at 8:02:59 PM

Latest Report: Mar 3, 2015 at 7:00 PM


Visibility: 31 mi

Pressure: 30.03 "Hg

Humidity: 93%

Dew point: 38 °F

Location of WesselingLocation

Historic Weather in Wesseling — Graph

°F

Wesseling temperature yesterday

Maximum temperature yesterday: 48 °F (at 2:00 PM)
Minimum temperature yesterday: 36 °F (at 7:00 PM)
Average temperature yesterday: 42 °F

Past Weeks' High & Low Weather Summary

 TemperatureHumidityPressure
High51 °F (Mar 1, 12:00 PM)100% (Feb 17, 9:00 AM)30.78 "Hg (Feb 17, 9:00 AM)
Low28 °F (Feb 28, 6:00 AM)42% (Feb 28, 4:00 PM)29.38 "Hg (Feb 21, 5:00 AM)
Average40 °F80%29.98 "Hg
* Reported Feb 16 7:00 PM — Mar 3 7:00 PM, Wesseling, Weather by CustomWeather, © 2015

Note: Actual official high and low records may vary slightly from our data, if they occured in-between our weather recording intervals... More about our weather records

Advertising

Wesseling weather history for previous 24 hours

 ConditionsComfort  
Time TempWeatherWind HumidityBarometerVisibility
7:00 PM
Tue, Mar 3
40 °FOvercast.2 mph93%30.03 "Hg31 mi
6:00 PM42 °FSprinkles. Overcast.9 mph87%30.03 "Hg7 mi
5:00 PM43 °FSprinkles. Overcast.5 mph83%30.01 "Hg19 mi
4:00 PM48 °FOvercast.9 mph56%30.00 "Hg19 mi
3:00 PM49 °FOvercast.8 mph49%30.00 "Hg31 mi
2:00 PM48 °FOvercast.9 mph52%30.03 "Hg47 mi
1:00 PM47 °FOvercast.8 mph57%30.06 "Hg47 mi
12:00 PM44 °FOvercast.6 mph61%30.09 "Hg43 mi
11:00 AM43 °FOvercast.6 mph65%30.11 "Hg43 mi
10:00 AM42 °FPartly sunny.5 mph67%30.11 "Hg34 mi
9:00 AM39 °FOvercast.3 mph74%30.12 "Hg25 mi
8:00 AM34 °FPassing clouds.3 mph85%30.11 "Hg28 mi
7:00 AM33 °FPassing clouds.3 mph85%30.11 "Hg25 mi
6:00 AM35 °FOvercast.3 mph83%30.11 "Hg25 mi
5:00 AM35 °FPassing clouds.3 mph82%30.10 "Hg25 mi
4:00 AM36 °FPassing clouds.3 mph81%30.09 "Hg25 mi
3:00 AM36 °FPassing clouds.3 mph80%30.09 "Hg25 mi
2:00 AM38 °FClear.6 mph75%30.07 "Hg22 mi
1:00 AM37 °FClear.5 mph76%30.06 "Hg25 mi
12:00 AM38 °FPassing clouds.6 mph75%30.03 "Hg25 mi
11:00 PM
Mon, Mar 2
37 °FPassing clouds.6 mph77%30.01 "Hg25 mi
10:00 PM37 °FPassing clouds.3 mph80%29.98 "Hg25 mi
9:00 PM37 °FPassing clouds.5 mph78%29.94 "Hg25 mi
8:00 PM37 °FPassing clouds.3 mph81%29.90 "Hg12 mi
Weather by CustomWeather, © 2015

See weather overviewHow to use our weather pages